Track COSMOS 2477 (GLONASS) now! COSMOS 2477 (GLONASS) is classified as:
1 37868U 11064B 26164.17359397 -.00000031 00000-0 00000-0 0 9992 2 37868 65.2740 73.0865 0019884 240.5145 265.3672 2.13103103113671